Preview of NWS' New Version of Forecast
This preview is not operational and should not be used for support decisions.
Latest weather observations around

Montgomery, Dannelly Field (KMGM)

Using English Units (Switch to International System of Units)
Date/ Time (CDT) Wind (mph) Vis. (mi) Weather Sky Cond. Temp (°F) Rel. Humidity Wind Chill (°F) Heat Index (°F) Pressure Precip. (in)
Air Dwpt 6 hour Altimeter (inHg) Sea level (inHg) 1 hr 3 hr 6 hr
Max Min
Jun 19 04:10 S 3 10 Partly Cloudy FEW006 SCT020 73 71     94%   74 29.89        
Jun 19 04:01 S 3 10 Mostly Cloudy SCT006 BKN020 73 71     94%   74 29.9        
Jun 19 03:53 Calm 10 Mostly Cloudy BKN006 BKN020 73 72     96%   75 29.9 29.89      
Jun 19 03:49 Calm 10 Mostly Cloudy BKN006 BKN018 73 72     94%   75 29.9        
Jun 19 03:31 SW 3 10 Mostly Clear FEW007 73 72     96%   75 29.9        
Jun 19 02:53 Calm 10 Clear CLR 73 72     96%   75 29.9 29.89      
Jun 19 01:53 Calm 10 Partly Cloudy SCT008 74 72     94%   75 29.9 29.89      
Jun 19 01:32 S 3 10 Partly Cloudy SCT009 73 72     96%   75 29.9        
Jun 19 01:23 S 5 10 Mostly Cloudy BKN009 74 72     94%   75 29.9        
Jun 19 00:53 SSE 3 10 Mostly Cloudy BKN010 73 72     96%   75 29.91 29.9      
Jun 19 00:44 Calm 10 Mostly Cloudy BKN009 74 72     94%   75 29.92        
Jun 19 00:34 Calm 10 Mostly Cloudy BKN010 73 72     96%   75 29.92        
Jun 18 23:53 Calm 10 Mostly Clear FEW010 FEW019 74 72     94%   75 29.93 29.92      
Jun 18 22:53 SSE 5 10 Clear CLR 74 72     94%   75 29.92 29.91      
Jun 18 21:53 SE 5 10 Cloudy FEW026 OVC095 76 73     91%   77 29.92 29.91      
Jun 18 21:23 SE 5 10 Cloudy SCT023 OVC095 75 73     94%   77 29.92        
Jun 18 20:53 SSE 6 10 Mostly Cloudy BKN024 75 72     90%   76 29.92 29.91      
Jun 18 20:42 SSE 6 10 Mostly Cloudy BKN024 75 72     90%   76 29.92        
Jun 18 19:53 SSE 5 10 Clear CLR 76 72     88%   77 29.92 29.91      
Jun 18 19:50 SSE 5 10 Clear CLR 75 72     89%   77 29.92        
Jun 18 18:53 S 8 10 Mostly Cloudy BKN018 78 72     82%   79 29.92 29.91     1
Jun 18 18:34 SSW 7 10 Mostly Cloudy FEW002 BKN017 79 72     79%   82 29.91        
Jun 18 18:15 SSW 9 10 Mostly Clear FEW002 79 72     79%   82 29.9        
Jun 18 17:53 SSE 8 10 Clear CLR 78 72     82%   79 29.89 29.88      
Jun 18 16:53 S 7 10 Partly Cloudy SCT008 78 72     82%   79 29.92 29.91      
Jun 18 16:43 SSE 6 10 Partly Cloudy SCT008 78 73     85%   80 29.91        
Jun 18 16:07 SSE 7 10 Mostly Cloudy BKN006 77 73     88%   79 29.93        
Jun 18 15:53 S 8 10 Mostly Cloudy BKN006 76 73     91%   77 29.94 29.93 0 1  
Jun 18 15:48 SSE 8 10 Mostly Clear FEW006 75 73     94%   77 29.94   0    
Jun 18 14:53 SSE 7 10 Light Rain SCT034 BKN110 74 72     94%   75 29.96 29.95 1    
Jun 18 14:41 S 5 3 Light Rain and Fog/Mist BKN026 BKN080 OVC100 73 71     94%   74 29.96   1    
Jun 18 14:30 SW 8 0.5 Heavy Rain and Fog BKN016 BKN024 OVC030 73 71     94%   74 29.98   0    
Jun 18 14:25 SW 14 0.25 Heavy Rain and Fog BKN011 BKN027 OVC041 73 71     94%   74 29.99   0    
Jun 18 14:20   0.75 Heavy Rain and Fog/Mist SCT013 BKN027 OVC070 74 71     91%   75 29.99   0    
Jun 18 14:17   1.75 Light Rain and Fog/Mist FEW015 BKN027 OVC070 75 71     88%   76 29.99   0    
Jun 18 13:53 S 11 10 Partly Cloudy SCT070 83 73     72%   89 29.96 29.95      
Jun 18 12:53 S 10 10 Partly Cloudy FEW033 SCT040 86 73     65%   93 29.95 29.94 0   0
Jun 18 11:53 WSW 10 10 Mostly Cloudy FEW018 SCT027 BKN042 86 72     63%   92 29.96 29.95      
Jun 18 10:56 SW 7 10 Mostly Cloudy FEW018 SCT027 BKN042 86 74     67%   94 29.98        
Jun 18 10:53 SSW 9 10 Partly Cloudy FEW018 FEW027 SCT042 87 75     68%   97 29.98 29.97      
Jun 18 10:00 SW 8 10 Mostly Cloudy SCT017 SCT025 BKN030 83 76     79%   91 29.99        
Jun 18 09:53 SSW 7 10 Mostly Cloudy FEW013 SCT019 BKN025 83 76     79%   91 29.99 29.98      
Jun 18 08:53 S 6 10 Mostly Cloudy BKN020 81 75     82%   87 29.99 29.98      
Jun 18 07:53 SSE 3 10 Clear CLR 78 75     90%   80 29.99 29.98      
Jun 18 06:53 Calm 10 Clear CLR 75 74     96%   77 29.99 29.98      
Jun 18 05:53 E 3 10 Clear CLR 74 72     94%   75 29.98 29.97      
Jun 18 04:53 SE 3 10 Clear CLR 73 72     96%   75 29.97 29.96      
Jun 18 03:53 Calm 10 Clear CLR 74 72     94%   75 29.97 29.96      
Jun 18 02:53 SSW 3 10 Clear CLR 74 72     94%   75 29.96 29.95      
Jun 18 01:53 ESE 3 10 Clear CLR 74 72     94%   75 29.98 29.97      
Jun 18 00:53 Calm 10 Clear CLR 75 73     94%   77 29.99 29.98     0
Jun 17 23:53 ESE 5 10 Partly Cloudy FEW060 SCT100 75 73     94%   77 30 29.99 0    
Jun 17 22:53 E 5 10 Mostly Clear FEW036 FEW110 76 74     94%   78 30.01 30      
Jun 17 21:53 Calm 10 Partly Cloudy FEW060 FEW100 SCT120 77 75     94%   79 30.01 30      
Jun 17 20:53 SW 3 10 Partly Cloudy SCT080 78 75     90%   80 29.99 29.98      
Jun 17 19:53 SSW 3 10 Mostly Cloudy BKN060 78 76     93%   80 29.98 29.97      
Jun 17 18:53 Calm 10 Clear CLR 81 76     85%   87 29.96 29.95     0
Jun 17 17:53 SW 5 8 Mostly Clear FEW060 78 74     87%   80 29.96 29.95 0    
Jun 17 17:48 SW 8 8 Partly Cloudy FEW060 SCT110 79 73     84%   82 29.96   0    
Jun 17 17:22 W 7 8 Light Rain FEW050 BKN070 OVC110 79 74     85%   83 29.95   0    
Jun 17 17:10 NNW 8 8 Light Rain FEW028 BKN060 OVC080 78 74     87%   80 29.94   0    
Notice The following observation data may not be complete
Jun 17 17:00 NW 9 8 Thunderstorms and Rain SCT030 BKN060 BKN080   73      %     29.95   0    
Notice The following observation data may not be complete
Jun 17 16:53 SW 7 0.75 Thunderstorms and Heavy Rain SCT028 BKN060   71      %     29.96 29.95 0    
Jun 17 16:48   1.5 Heavy Rain FEW026 BKN055 79 72     79%   82 29.97   0    
Jun 17 16:30 6 10 Mostly Clear FEW060 93 69     46%   98 29.94        
Jun 17 15:53 Calm 10 Clear CLR 93 67     43%   97 29.94 29.93      
Jun 17 14:53 E 3 10 Partly Cloudy SCT050 92 69     47%   97 29.97 29.96      
Jun 17 13:53 S 7 10 Partly Cloudy SCT048 92 70     49%   98 29.99 29.98      
Jun 17 12:53 6 10 Mostly Clear FEW044 92 71     51%   99 30.01 30      
Jun 17 11:53 SE 10 10 Partly Cloudy SCT038 90 71     54%   96 30.03 30.02      
Jun 17 10:53 S 6 10 Clear CLR 88 72     59%   95 30.03 30.02      
Jun 17 09:53 SSW 6 10 Clear CLR 85 72     65%   91 30.03 30.02      
Jun 17 08:53 S 6 10 Clear CLR 82 74     77%   88 30.03 30.02      
Jun 17 07:53 SSE 5 10 Clear CLR 77 73     88%   79 30.04 30.03      
Jun 17 06:53 Calm 10 Clear CLR 74 72     94%   75 30.02 30.01      
Jun 17 05:53 Calm 10 Clear CLR 71 69     93%   72 30 29.99      
Jun 17 04:53 S 3 9 Clear CLR 70 69     97%     29.98 29.97      
Jun 17 03:53 Calm 10 Clear CLR 71 69     93%   72 29.96 29.96      
Jun 17 02:53 W 3 10 Clear CLR 72 70     93%   73 29.97 29.96      
Jun 17 01:53 SSE 5 10 Clear CLR 72 70     93%   73 29.99 29.98      
Jun 17 00:53 SSE 3 10 Clear   74 71     91%   75 30.02 30.01     0
Jun 16 23:53 Calm 10 Partly Cloudy SCT070 76 70     82%   77 30.03 30.02      
Jun 16 22:53 Calm 10 Clear CLR 75 70     84%   76 30.02 30.01      
Jun 16 21:53 Calm 10 Clear CLR 76 69     79%   77 30 29.98   0  
Jun 16 20:53 SSW 5 10 Clear CLR 76 70     82%   77 29.98 29.97      
Jun 16 19:53 WSW 3 10 Partly Cloudy FEW050 FEW085 SCT110 77 70     79%   78 29.97 29.96 0    
Jun 16 18:53 NW 3 10 Clear CLR 80 68     67%   83 29.96 29.95      
Jun 16 18:26 WSW 11 10 Mostly Clear FEW070 81 68     65%   84 29.96        
Jun 16 18:04 SSE 3 10 Thunderstorms CLR 86 72     63%   92 29.96        
Jun 16 17:53 S 3 10 Clear CLR 87 71     59%   93 29.95 29.94      
Jun 16 17:40 S 3 10 Thunderstorms FEW055 FEW070 88 71     57%   94 29.95        
Jun 16 17:05 ESE 6 10 Mostly Clear FEW055 90 68     49%   94 29.95        
Jun 16 16:53 SE 6 10 Clear CLR 92 69     47%   97 29.94 29.93      
Jun 16 15:53 SE 6 10 Clear CLR 92 69     47%   97 29.95 29.94      
Jun 16 14:53 SSE 8 10 Clear CLR 92 70     49%   98 29.97 29.96      
Jun 16 13:53 ESE 5 10 Mostly Cloudy BKN046 91 71     52%   98 30 29.98      
Jun 16 12:53 SE 7 10 Cloudy OVC042 89 70     53%   94 30.02 30.01      
Jun 16 11:53 S 8 10 Mostly Clear FEW035 89 71     55%   95 30.04 30.03      
Jun 16 08:53 SW 6 10 Mostly Clear FEW018 82 73     74%   87 30.09 30.08      
Jun 16 07:53 Calm 10 Clear CLR 79 72     79%   82 30.07 30.06      
Jun 16 06:53 Calm 10 Clear CLR 74 71     91%   75 30.06 30.05      
Jun 16 05:57 Calm 10 Clear CLR 71 69     93%   72 30.04        
Jun 16 05:53 Calm 4 Fog/Mist CLR 71 69     93%   72 30.03 30.02      
Jun 16 04:53 Calm 10 Clear CLR 70 69     97%     30.02 30.01      
Jun 16 02:53 S 3 10 Clear CLR 73 69     87%   74 30.01 30      
May 15 10:53 E 8 10 Cloudy BKN033 OVC041 83 67     59%   86 29.99 29.98      
May 14 19:53 SE 7 10 Clear CLR 79 68     69%   80 29.93 29.92      
May 14 17:53 NE 5 10 Clear CLR 89 63     42%   90 29.92 29.91      
May 14 12:53 N 7 10 Mostly Clear FEW070 93 60     33%   93 30 29.98      
May 14 11:53 N 5 10 Clear CLR 93 64     38%   95 30.01 30      
May 13 00:53 Calm 10 Clear CLR 67 63     87%     30.07 30.06      
May 12 15:53 SW 7 10 Clear CLR 91 53     28%   89 30.08 30.07      
May 11 16:53 Calm 10 Mostly Clear FEW080 90 56     32%   88 30.05 30.04      
May 11 11:53 3 10 Clear CLR 86 59     40%   85 30.14 30.13      
Jun 12 08:37 ESE 8 10 Mostly Clear FEW015 81 70     69%   84 30.16        
Jun 11 20:53 ESE 5 10 Clear CLR 79 71     77%   82 30.1 30.09      
Jun 11 16:53 SSE 9 10 Clear CLR 84 68     59%   87 30.07 30.06      
Jun 11 10:53 SE 7 10 Mostly Clear FEW028 86 68     55%   89 30.14 30.13      
Jun 11 10:10 ESE 7 10 Partly Cloudy SCT023 85 70     61%   89 30.15        
Jun 11 09:53 SE 8 10 Mostly Cloudy BKN023 84 70     63%   88 30.15 30.14      
Jun 09 16:53 S 5 10 Clear CLR 87 56     35%   86 29.92 29.91      
Jun 09 15:53 5 10 Mostly Clear FEW060 86 56     36%   85 29.93 29.92      
Jun 08 06:53 Calm 10 Clear CLR 67 58     73%     29.89 29.88      
Jun 07 10:53 NNE 10 10 Clear CLR 80 66     62%   82 29.77 29.76      
Jun 06 13:58 N 9 2 Heavy Rain FEW027 BKN034 OVC060 75 70     84%   76 29.73   0    
Jun 06 13:43 N 10 1.25 Heavy Rain FEW006 BKN022 OVC040 74 69     85%   75 29.74   0    
Jun 06 12:53 SE 11 10 Mostly Cloudy FEW021 SCT033 BKN042 80 70     71%   83 29.75 29.74      
Jun 06 09:53 NE 9 10 Mostly Cloudy BKN007 79 71     77%   82 29.76 29.75      
Jun 06 07:53 Calm 10 Mostly Clear FEW004 74 69     85%   75 29.78 29.77      
Notice The following observation data may not be complete
Jun 05 21:03   6 Rain FEW006 BKN023 OVC110          %         0    
Jun 05 19:28 N 3 10 Mostly Cloudy SCT027 BKN065 75 68     79%   76 29.79